TimeEST,TemperatureF,Dew PointF,Humidity,Sea Level PressureIn,VisibilityMPH,Wind Direction,Wind SpeedMPH,Gust SpeedMPH,PrecipitationIn,Events,Conditions,WindDirDegrees,DateUTC
12:16 AM,19.4,12.2,74,30.30,10.0,NNE,3.5,-,N/A,,Scattered Clouds,30,2013-02-21 05:16:00
12:53 AM,18.0,12.0,78,30.35,10.0,NNE,3.5,-,N/A,,Clear,20,2013-02-21 05:53:00
1:53 AM,19.0,12.0,74,30.36,10.0,Calm,Calm,-,N/A,,Clear,0,2013-02-21 06:53:00
2:53 AM,17.1,12.0,81,30.33,10.0,North,3.5,-,N/A,,Clear,360,2013-02-21 07:53:00
3:32 AM,17.6,12.2,79,30.30,10.0,North,4.6,-,N/A,,Mostly Cloudy,350,2013-02-21 08:32:00
3:53 AM,19.0,14.0,81,30.33,10.0,North,3.5,-,N/A,,Overcast,360,2013-02-21 08:53:00
4:53 AM,19.9,15.1,81,30.32,10.0,NNE,5.8,-,N/A,,Overcast,30,2013-02-21 09:53:00
6:53 AM,21.0,16.0,81,30.37,10.0,NNE,3.5,-,N/A,,Overcast,30,2013-02-21 11:53:00
7:53 AM,21.0,16.0,81,30.35,10.0,ENE,5.8,-,N/A,,Overcast,60,2013-02-21 12:53:00
8:53 AM,21.0,16.0,81,30.35,10.0,NE,8.1,-,N/A,,Overcast,40,2013-02-21 13:53:00
9:53 AM,23.0,16.0,74,30.35,10.0,NE,5.8,-,N/A,,Overcast,50,2013-02-21 14:53:00
10:53 AM,24.1,17.1,75,30.33,10.0,ENE,10.4,-,N/A,,Overcast,60,2013-02-21 15:53:00
11:20 AM,26.6,17.6,69,30.28,10.0,East,8.1,-,N/A,,Scattered Clouds,80,2013-02-21 16:20:00
12:53 PM,28.9,18.0,64,30.30,10.0,East,8.1,-,N/A,,Clear,90,2013-02-21 17:53:00
1:53 PM,30.0,19.0,64,30.21,10.0,East,12.7,20.7,N/A,,Clear,80,2013-02-21 18:53:00
2:53 PM,28.9,19.0,67,30.17,10.0,East,11.5,18.4,N/A,,Clear,80,2013-02-21 19:53:00
3:53 PM,28.9,19.9,69,30.21,10.0,ENE,10.4,-,N/A,,Clear,70,2013-02-21 20:53:00
4:53 PM,28.0,19.9,72,30.20,10.0,ENE,13.8,19.6,N/A,,Mostly Cloudy,70,2013-02-21 21:53:00
5:53 PM,28.0,19.9,72,30.20,10.0,East,8.1,-,N/A,,Overcast,80,2013-02-21 22:53:00
6:53 PM,28.0,19.9,72,30.19,10.0,ESE,13.8,-,N/A,,Overcast,110,2013-02-21 23:53:00
7:27 PM,28.4,23.0,80,30.13,6.0,East,11.5,-,0.03,Rain,Light Freezing Rain,100,2013-02-22 00:27:00
7:53 PM,28.0,23.0,81,30.14,5.0,East,15.0,20.7,0.06,Rain,Light Freezing Rain,100,2013-02-22 00:53:00
8:01 PM,28.4,24.8,86,30.10,5.0,East,11.5,20.7,0.01,Rain,Light Freezing Rain,100,2013-02-22 01:01:00
8:51 PM,26.6,24.8,93,30.07,5.0,East,13.8,21.9,0.06,Snow,Light Snow,100,2013-02-22 01:51:00
8:53 PM,27.0,24.1,89,30.10,4.0,East,16.1,21.9,0.06,Snow,Light Snow,100,2013-02-22 01:53:00
8:59 PM,26.6,24.8,93,30.06,1.8,East,19.6,24.2,0.02,Snow,Light Snow,100,2013-02-22 01:59:00
9:10 PM,26.6,24.8,93,30.06,3.0,East,17.3,24.2,0.04,,Overcast,100,2013-02-22 02:10:00
9:22 PM,26.6,24.8,93,30.04,3.0,East,13.8,23.0,0.07,Snow,Light Snow,90,2013-02-22 02:22:00
9:30 PM,26.6,24.8,93,30.03,2.5,East,13.8,27.6,0.10,Snow,Light Snow,90,2013-02-22 02:30:00
9:38 PM,26.6,24.8,93,30.02,4.0,East,16.1,23.0,0.11,,Overcast,80,2013-02-22 02:38:00
9:44 PM,26.6,24.8,93,30.01,5.0,East,15.0,24.2,0.12,Rain,Light Freezing Rain,90,2013-02-22 02:44:00
9:53 PM,27.0,25.0,92,30.04,6.0,East,18.4,26.5,0.12,Rain,Light Freezing Rain,100,2013-02-22 02:53:00
10:02 PM,26.6,24.8,93,30.01,6.0,East,15.0,23.0,0.00,Rain,Light Freezing Rain,100,2013-02-22 03:02:00
10:53 PM,27.0,25.0,92,30.04,6.0,ESE,9.2,20.7,0.01,Rain,Light Freezing Rain,110,2013-02-22 03:53:00
11:53 PM,28.0,27.0,96,30.03,5.0,ESE,15.0,23.0,0.05,Rain,Light Freezing Rain,120,2013-02-22 04:53:00